Retour au catalogue

STARLINK-35145

ActifCommunicationsVLEO
NORAD 65685·PAYLOAD·🇺🇸 United States

Lancé Sep 21, 2025 depuis Cape Canaveral Space Force Station

Loading…

Prochains Passages (prochaines 24 heures)

TLE

FraisSource: CelesTrak SupGP

Époque: Sep 15, 2026, 03:12 UTC

1 65685C 25212K   26258.13381944 -.00021635  00000+0 -63919-3 0  2585
2 65685  53.1580 182.5396 0001337  88.4187 258.6243 15.34402077    12

Suivez STARLINK-35145 en temps réel avec AllMySat

Download on the App Store